Location: Owatonna
(44.0840°N, 93.2260°W)
Time: 13:59:09
(UTC-05:00)

Tiangong 1 - Visible Passes

Search period start: 24 April 2017 00:00
Search period end: 04 May 2017 00:00
Orbit: 329 x 353 km, 42.8° (Epoch: 23 April)

Date Brightness Start Highest point End Pass type
(mag) Time Alt. Az. Time Alt. Az. Time Alt. Az.
24 Apr 1.2 04:21:59 54° SE 04:21:59 54° SE 04:24:21 10° E visible
25 Apr 0.8 04:43:09 46° SW 04:43:39 55° S 04:46:26 10° ESE visible
26 Apr 1.5 05:04:22 22° WSW 05:05:38 34° SSW 05:08:14 10° SE visible
27 Apr 3.6 03:54:21 13° ESE 03:54:21 13° ESE 03:54:46 10° ESE visible
27 Apr 2.5 05:25:41 12° WSW 05:27:24 18° SSW 05:29:25 10° SSE visible
28 Apr 3.3 04:15:52 14° SE 04:15:52 14° SE 04:16:22 10° SE visible
02 May 3.3 22:01:37 10° SW 22:02:05 13° SSW 22:02:05 13° SSW visible
03 May 3.0 22:22:37 10° WSW 22:23:32 18° SW 22:23:32 18° SW visible
